Detalii statie AGRIMAT MATCA [0000198A]

Toti senzorii

Date Temperatura solului [C]Precipitatii [mm]Voltaj baterie [mV]Leaf Wetness [Min]HC Air temperature [C]HC Relative humidity [%]
medieminmaxsumaultimatimpmedieminmaxmedie
2019-02-21 00:00:06 0 6588
2019-02-21 01:00:07 0 6553
2019-02-21 02:00:06 0 6571
2019-02-21 03:00:06 0 6568
2019-02-21 04:00:06 0 6576
2019-02-21 05:00:06 0 6576
2019-02-21 06:00:07 0 6576
2019-02-21 07:00:07 0 6576
2019-02-21 08:00:07 0 6562
2019-02-21 09:00:06 0 6599
2019-02-21 10:00:06 0 6833
2019-02-21 11:00:06 0 6824
2019-02-21 12:00:06 0 6810
2019-02-21 13:00:06 0 6818
2019-02-21 14:00:07 0 6810
2019-02-21 15:00:07 0 6773
2019-02-21 16:00:06 0 6773
2019-02-21 17:00:07 0 6693
2019-02-21 18:00:06 0 6619
2019-02-21 19:00:06 0 6602
2019-02-21 20:00:06 0 6593
2019-02-21 21:00:06 0 6582
2019-02-21 22:00:07 0 6585
2019-02-21 23:00:07 0 6593
2019-02-22 00:00:07 0 6590
2019-02-22 01:00:06 0 6548
2019-02-22 02:00:06 0 6562
2019-02-22 03:00:07 0 6568
2019-02-22 04:00:07 0 6573
2019-02-22 05:00:06 0 6571
2019-02-22 06:00:06 0 6568
2019-02-22 07:00:06 0 6568
2019-02-22 08:00:06 0.2 6556
2019-02-22 09:00:06 0.4 6571
2019-02-22 10:00:06 0.6 6602
2019-02-22 11:00:06 0.8 6628
2019-02-22 12:00:06 1.4 6673
2019-02-22 13:00:06 0 6625
2019-02-22 14:00:06 0.8 6602
2019-02-22 15:00:06 0.4 6696
2019-02-22 16:00:06 0 6639
2019-02-22 17:00:06 0 6605
2019-02-22 18:00:06 0 6534
2019-02-22 19:00:06 0 6525
2019-02-22 20:00:06 0 6534
2019-02-22 21:00:07 0 6516
2019-02-22 22:00:07 0 6531
2019-02-22 23:00:06 0 6539